User: anonymous   Login
Location: Unspecified
(0.0000°N, 0.0000°E)
Time: 16:58:47
(UTC+00:00)
Language:

FAISAT-2V - Orbit

View from above orbital plane
View from above orbital plane
View from above satellite
View from above satellite

Ground track
Ground track

The orbit data is extracted from the following two-line orbital elements,

1 24954U 97052B   17264.96149757 +.00000030 +00000-0 +14814-4 0  9990
2 24954 082.9239 214.5983 0038027 285.3719 137.8982 13.79955042006971
Epoch (UTC): 21 September 2017 23:04:33
Eccentricity: 0.0038027
inclination: 82.9239°
perigee height: 936 km
apogee height: 992 km
right ascension of ascending node: 214.5983°
argument of perigee: 285.3719°
revolutions per day: 13.79955042
mean anomaly at epoch: 137.8982°
orbit number at epoch: 697

The dashed part of the orbit path shows where the satellite is in the earth's shadow,  

DLR